This is the latest recevied weather packets stored in our database for station/object N4PWG. If no packets are shown the sender has not sent any weather packets the latest 10 day(s).
| Time | Temp. | Humidity | Pressure | Rain* | Wind** | Luminosity | Snow |
|---|---|---|---|---|---|---|---|
| 1777912805 | 26.67° C | 47% | 1028.4 hPa | 0 mm | - | 643 W/m² | - |
| 1777912501 | 26.67° C | 47% | 1028.4 hPa | 0 mm | - | 643 W/m² | - |
| 1777912198 | 26.67° C | 47% | 1028.8 hPa | 0 mm | - | 644 W/m² | - |
| 1777911894 | 26.67° C | 47% | 1028.7 hPa | 0 mm | - | 638 W/m² | - |
| 1777911591 | 26.67° C | 47% | 1028.9 hPa | 0 mm | - | 596 W/m² | - |
| 1777911286 | 26.67° C | 47% | 1028.9 hPa | 0 mm | - | 580 W/m² | - |
| 1777910984 | 26.11° C | 48% | 1028.9 hPa | 0 mm | - | 603 W/m² | - |
| 1777910682 | 26.67° C | 48% | 1029 hPa | 0 mm | - | 606 W/m² | - |
| 1777910378 | 26.67° C | 50% | 1029 hPa | 0 mm | - | 648 W/m² | - |
| 1777910075 | 26.67° C | 50% | 1029 hPa | 0 mm | - | 648 W/m² | - |
| 1777909773 | 25.56° C | 52% | 1029.1 hPa | 0 mm | - | 646 W/m² | - |
| 1777909469 | 25.56° C | 51% | 1029.2 hPa | 0 mm | - | 652 W/m² | - |
| 1777909167 | 25.56° C | 52% | 1029.1 hPa | 0 mm | - | 609 W/m² | - |
| 1777908865 | 26.11° C | 51% | 1029.4 hPa | 0 mm | - | 597 W/m² | - |
| 1777908561 | 26.11° C | 52% | 1029.4 hPa | 0 mm | - | 588 W/m² | - |
| 1777908258 | 25.56° C | 53% | 1029.3 hPa | 0 mm | - | 614 W/m² | - |
| 1777907955 | 25° C | 53% | 1029.2 hPa | 0 mm | - | 562 W/m² | - |
| 1777907650 | 25° C | 52% | 1029.3 hPa | 0 mm | - | 564 W/m² | - |
| 1777907346 | 25° C | 55% | 1029.5 hPa | 0 mm | - | 560 W/m² | - |
| 1777907042 | 24.44° C | 56% | 1029.6 hPa | 0 mm | - | 518 W/m² | - |
| 1777906740 | 24.44° C | 57% | 1029.5 hPa | 0 mm | - | 495 W/m² | - |
| 1777906436 | 23.89° C | 60% | 1029.5 hPa | 0 mm | - | 423 W/m² | - |
| 1777906133 | 23.89° C | 59% | 1029.3 hPa | 0 mm | - | 437 W/m² | - |
| 1777905830 | 23.89° C | 60% | 1029.5 hPa | 0 mm | - | 453 W/m² | - |
| 1777905527 | 23.89° C | 59% | 1029.5 hPa | 0 mm | - | 439 W/m² | - |
* Rain latest hour (hover to see other rain measurements)
** Current wind speed in m/s (hover to see current wind gust speed)